Home > Weather > Halle > Past weeks

Flag for Germany Weather for the Past 2 Weeks in Halle, Saxony-Anhalt, Germany

Now
46 °F

Light rain. Partly sunny.


Feels Like: 40 °F
Forecast: 37 / 43 °F
Wind: 15 mph from South

Location: Leipzig-Schkeuditz

Current Time: Feb 9, 2016 at 3:00:31 PM

Latest Report: Feb 9, 2016 at 2:20 PM


Visibility: N/A

Pressure: 29.27 "Hg

Humidity: 76%

Dew point: 39 °F

Location of HalleLocation

Historic Weather in Halle — Graph

°F

Halle Temperature Yesterday

Maximum temperature yesterday: 52 °F (at 12:20 PM)
Minimum temperature yesterday: 43 °F (at 1:20 AM)
Average temperature yesterday: 46 °F

High & Low Weather Summary for the Past Weeks

 TemperatureHumidityPressure
High54 °F (Jan 26, 12:50 PM)100% (Jan 25, 8:50 PM)30.30 "Hg (Jan 25, 8:50 PM)
Low34 °F (Jan 28, 10:20 PM)53% (Feb 3, 3:50 PM)29.33 "Hg (Feb 9, 1:20 PM)
Average44 °F78%29.94 "Hg
* Reported Jan 25 1:20 PM — Feb 9 1:20 PM, Halle, Weather by CustomWeather, © 2016

Note: Actual official high and low records may vary slightly from our data, if they occured in-between our weather recording intervals... More about our weather records

Advertising

Halle Weather History for the Previous 24 Hours

 ConditionsComfort  
Time TempWeatherWind HumidityBarometerVisibility
1:20 PM
Tue, Feb 9
46 °FPartly sunny.15 mph66%29.33 "HgN/A
12:50 PM46 °FBroken clouds.8 mph71%29.36 "HgN/A
12:20 PM46 °FBroken clouds.12 mph66%29.36 "HgN/A
11:50 AM46 °FPartly sunny.16 mph71%29.39 "HgN/A
11:20 AM46 °FPartly sunny.17 mph71%29.45 "HgN/A
10:50 AM46 °FBroken clouds.23 mph71%29.45 "HgN/A
10:20 AM46 °FBroken clouds.26 mph66%29.45 "HgN/A
9:50 AM46 °FSunny.16 mph66%29.47 "Hg10 mi
9:20 AM45 °FSunny.13 mph71%29.45 "Hg10 mi
8:50 AM45 °FScattered clouds.12 mph66%29.47 "HgN/A
8:20 AM43 °FScattered clouds.12 mph71%29.47 "HgN/A
7:50 AM43 °FScattered clouds.13 mph71%29.50 "HgN/A
7:20 AM45 °FPassing clouds.17 mph66%29.50 "HgN/A
6:50 AM45 °FClear.22 mph61%29.47 "Hg10 mi
6:20 AM45 °FClear.22 mph57%29.47 "Hg10 mi
5:50 AM45 °FClear.20 mph61%29.47 "Hg10 mi
5:20 AM45 °FClear.22 mph61%29.47 "Hg10 mi
4:50 AM45 °FPassing clouds.26 mph61%29.47 "HgN/A
4:20 AM45 °FPassing clouds.24 mph61%29.47 "HgN/A
3:50 AM46 °FPassing clouds.32 mph57%29.45 "HgN/A
3:20 AM46 °FPassing clouds.23 mph62%29.45 "HgN/A
2:50 AM46 °FPartly cloudy.25 mph62%29.45 "HgN/A
2:20 AM46 °FPassing clouds.23 mph62%29.45 "HgN/A
1:50 AM45 °FClear.23 mph66%29.45 "Hg10 mi
1:20 AM45 °FClear.28 mph66%29.45 "Hg10 mi
12:50 AM45 °FClear.26 mph66%29.45 "Hg10 mi
12:20 AM45 °FClear.23 mph66%29.45 "Hg10 mi
11:50 PM
Mon, Feb 8
43 °FClear.21 mph71%29.42 "Hg10 mi
11:20 PM43 °FClear.18 mph71%29.45 "Hg10 mi
10:50 PM43 °FClear.22 mph71%29.45 "Hg10 mi
10:20 PM43 °FClear.22 mph71%29.45 "Hg10 mi
9:50 PM43 °FClear.21 mph76%29.45 "Hg10 mi
9:20 PM43 °FClear.20 mph76%29.42 "Hg10 mi
8:50 PM43 °FClear.21 mph76%29.42 "Hg10 mi
8:20 PM45 °FClear.26 mph71%29.42 "Hg10 mi
7:50 PM46 °FClear.25 mph66%29.39 "Hg10 mi
7:20 PM46 °FClear.18 mph71%29.39 "Hg10 mi
6:50 PM45 °FClear.15 mph76%29.39 "Hg10 mi
6:20 PM45 °FPartly cloudy.16 mph76%29.39 "HgN/A
5:50 PM45 °FPartly cloudy.18 mph76%29.39 "HgN/A
5:20 PM43 °FPassing clouds.20 mph81%29.36 "HgN/A
4:50 PM43 °FSprinkles. Broken clouds.22 mph87%29.36 "HgN/A
4:20 PM50 °FSprinkles. Partly sunny.24 mph71%29.36 "HgN/A
3:50 PM50 °FPartly sunny.22 mph71%29.36 "HgN/A
3:20 PM50 °FBroken clouds.24 mph71%29.36 "HgN/A
Weather by CustomWeather, © 2016

See weather overviewHow to use our weather pages